Regional Weather Roundup
Issued by NWS

Home | Current Version | Previous Version | Text Only | Print | Product List | Glossary Off
Versions: 1 2 3 4 5 6 7 8 9 10 11 12 13 14 15 16 17 18 19 20 21 22 23 24 25 26 27 28 29 30 31 32 33 34 35 36 37 38 39 40 41 42 43 44 45 46 47 48 49 50

000
ASUS43 KFSD 040702
RWRSD

WEATHER ROUNDUP FOR SOUTH DAKOTA
NATIONAL WEATHER SERVICE SIOUX FALLS SD
100 AM CST WED MAR 04 2015

NOTE: "FAIR" INDICATES FEW OR NO CLOUDS BELOW 12,000 FEET WITH NO
SIGNIFICANT WEATHER AND/OR OBSTRUCTIONS TO VISIBILITY.


SDZ001>005-009-010-012>017-040800-
NORTHWEST AND NORTH CENTRAL SOUTH DAKOTA

CITY           SKY/WX    TMP DP  RH WIND       PRES   REMARKS
BUFFALO          N/A      4  -3  73 W12       29.95R WCI -12
FAITH            N/A      4  -6  63 W10       30.03F WCI -11
MOBRIDGE       CLEAR      2  -4  76 SE3       30.04S
$$

SDZ012>016-024>037-041>051-057-063-072>074-040800-
SOUTHWEST AND SOUTH CENTRAL SOUTH DAKOTA

CITY           SKY/WX    TMP DP  RH WIND       PRES   REMARKS
RAPID CTY ARPT CLEAR      0  -7  72 NW6       30.07R WCI -12
PIERRE         CLEAR      4  -3  73 SW8       30.12R WCI  -9
CUSTER         PTCLDY    -2  -8  76 W7        29.88S WCI -15
ELLSWORTH AFB  MOCLDY     5  -6  60 SW7       30.05R WCI  -7
PHILIP         CLEAR      2  -6  69 W8        30.12R WCI -12
PINE RIDGE     CLEAR      1  -4  79 W3        30.09S
SPEARFISH      FAIR       9  -2  61 W12       30.01R WCI  -6
WINNER         FAIR       7  -5  57 W13       30.13R WCI  -9
$$

SDZ004>011-016>023-039-040-040800-
NORTHEAST SOUTH DAKOTA

CITY           SKY/WX    TMP DP  RH WIND       PRES   REMARKS
ABERDEEN       CLEAR     -8 -13  78 SW7       30.12S WCI -23
WATERTOWN      CLEAR      0  -7  72 W9        30.07R WCI -15
$$

SDZ017-020-022-023-036>040-048>070-040800-
SOUTHEAST SOUTH DAKOTA

CITY           SKY/WX    TMP DP  RH WIND       PRES   REMARKS
SIOUX FALLS    PTCLDY     5  -2  72 W3        30.13R
HURON          CLEAR     -4  -8  83 CALM      30.15R
MITCHELL       CLEAR      5   0  79 W5        30.17R WCI  -4
YANKTON        PTCLDY    12   3  67 W5        30.19R WCI   4
$$

ABBREVIATIONS USED IN REMARKS
   TC - TEMPERATURE IN CELSIUS
  WCI - WIND CHILL INDEX
   HX - HEAT INDEX
  VSB - VISIBILITY



USA.gov is the U.S. government's official web portal to all federal, state and local government web resources and services.